Dewpoint
5 4 4 2 2 3 4 1 -2 -3 -3 -4 -4 -4 -3 -2 -2 -2 -2 -2 -2 -2 -2 -2 -3 -3 -4 -4 -4 -4 -4 -5
1 -1 -3 -4 -2 1 1 -1 -3 -3 -3 -3 -3 -3 -3 -2 -2 -2 -2 -2 -1 -1 -1 -1 -2 -2 -3 -3 -4 -3 -3 -4
-6 -6 -5 -5 -3 -1 -1 -2 -2 -2 -2 -2 -2 -3 -3 -2 -2 -1 -0 -0 -0 -0 -0 -0 -0 -1 -2 -2 -2 -2 -2 -3
-4 -4 -4 -3 -3 -2 -2 -1 -1 -2 -2 -2 -2 -2 -1 -1 -1 0 0 -0 -0 -1 -1 -1 -1 -1 -1 -0 -1 -2 -1 -1
-4 -3 -3 -3 -3 -3 -2 -2 -2 -2 -1 -0 0 0 0 -0 -0 -1 -1 -2 -3 -3 -3 -2 -2 -2 -2 -1 0 -1 -1 1
-4 -4 -3 -2 -2 -2 -1 -1 -1 -0 0 0 -0 -0 -1 -3 -3 -4 -5 -7 -8 -8 -7 -4 -4 -4 -4 -3 -2 -1 -0 1
-2 -2 -1 -0 0 0 0 -0 -0 -1 -1 -1 0 1 -1 -4 -6 -7 -9 -10 -11 -9 -7 -6 -6 -5 -5 -3 -1 0 1 1
0 0 0 0 0 -0 -0 -1 -1 -0 -0 0 -1 -4 -6 -6 -6 -6 -7 -7 -8 -6 -4 -4 -4 -4 -2 -1 -0 -1 -1 -1
1 1 1 1 1 1 0 -0 -0 -0 -2 -4 -7 -7 -5 -6 -7 -7 -6 -6 -6 -4 -3 -4 -3 -2 -1 -1 -1 -1 -1 -1
1 0 0 1 1 1 1 -0 -3 -4 -6 -8 -8 -6 -5 -4 -6 -7 -7 -5 -4 -3 -2 -2 -1 -1 -1 -1 -1 -1 -2 -3
-0 -0 1 1 2 3 -0 -0 0 -3 -4 -3 -2 -1 -2 -4 -6 -6 -4 -4 -3 -2 -2 -1 -2 -2 -2 -3 -6 -7 -6 -5
2 2 2 3 3 1 -4 -4 -2 0 0 -0 -0 -0 -2 -4 -6 -4 -4 -3 -2 -1 -2 -3 -2 -3 -4 -4 -5 -5 -6 -7
2 2 1 1 1 -3 -7 -6 -4 -1 0 1 0 -2 -4 -5 -6 -3 -4 -2 -2 -3 -3 -3 -3 -4 -4 -5 -6 -7 -8 -9
3 2 -0 -1 -1 -3 -4 -5 -4 -1 1 1 -1 -4 -4 -5 -3 -3 -4 -3 -3 -3 -3 -5 -7 -6 -6 -7 -8 -9 -10 -12
2 1 -0 -2 -2 -2 -2 -2 -2 0 0 -1 -2 -4 -4 -3 -3 -3 -3 -3 -4 -5 -5 -6 -7 -6 -6 -7 -9 -11 -14 -15
2 -0 -2 -2 -1 -4 -9 -10 -8 -3 -1 -3 -2 -2 -2 -3 -4 -3 -4 -5 -6 -6 -4 -4 -5 -8 -10 -11 -13 -14 -14 -16
-0 -1 -3 -2 -7 -10 -8 -6 -4 -2 -3 -2 -2 -2 -2 -2 -4 -7 -6 -6 -7 -8 -9 -10 -10 -11 -13 -13 -14 -15 -16 -17
-3 -2 -3 -9 -10 -9 -7 -6 -5 -4 -4 -4 -3 -5 -6 -6 -6 -6 -7 -9 -10 -10 -11 -12 -13 -13 -13 -14 -15 -16 -15 -12
-4 -2 -8 -11 -10 -8 -5 -4 -3 -4 -5 -6 -6 -6 -7 -8 -10 -12 -13 -14 -13 -12 -12 -12 -13 -14 -14 -15 -16 -16 -11 -11
Wind_Speed
19 17 18 18 17 17 16 15 12 8 7 9 8 7 7 9 13 16 17 18 20 22 25 26 27 28 28 28 28 26 25 25
9 14 20 18 12 15 15 13 9 10 11 11 12 13 16 17 17 21 23 24 25 25 28 30 33 35 35 34 34 33 32 30
12 12 11 4 2 5 10 11 13 14 15 16 18 20 21 23 24 25 28 30 30 30 32 33 34 37 39 41 41 41 39 37
10 7 6 4 5 8 10 12 13 14 15 17 18 19 19 21 24 30 31 32 33 35 37 38 38 40 42 42 42 45 47 44
6 4 2 2 3 6 8 9 11 11 10 10 13 18 23 27 30 33 36 36 34 32 31 32 33 34 36 36 39 42 44 45
8 7 7 7 6 5 5 5 6 9 13 19 25 29 33 36 36 36 36 37 36 36 35 33 33 33 35 37 38 39 39 41
5 6 5 7 9 8 9 11 15 20 24 29 34 38 40 38 38 39 40 40 39 35 34 34 34 32 31 30 32 33 32 28
15 14 13 13 13 15 17 20 24 30 33 36 35 33 31 32 36 39 39 37 35 33 31 29 27 25 23 20 18 16 14 17
15 17 18 19 21 23 25 28 29 32 31 25 24 25 28 33 37 39 38 35 32 30 27 26 22 18 14 12 11 11 13 13
18 19 21 23 22 24 26 28 24 21 23 24 24 26 32 35 39 40 37 30 28 25 21 15 11 10 11 14 16 18 21 15
21 20 21 22 19 21 22 21 22 22 24 25 26 29 34 39 43 37 26 23 18 11 7 7 8 11 13 15 11 10 12 12
17 15 17 17 13 22 24 24 25 26 29 28 29 32 38 42 39 30 20 13 5 6 12 12 14 10 6 8 8 10 12 14
20 19 25 25 25 24 24 24 27 29 32 31 32 36 39 38 28 22 9 5 9 10 14 16 15 14 13 14 15 15 16 18
20 19 29 26 26 24 26 29 31 31 29 30 32 34 32 25 21 19 14 15 16 17 17 18 17 15 16 16 18 21 23 25
21 21 21 18 20 27 30 32 32 30 31 30 31 24 22 21 15 14 16 17 15 17 14 15 17 17 20 23 26 28 29 29
16 16 16 20 27 32 37 37 34 30 26 27 22 22 18 13 12 11 12 14 17 19 20 19 20 21 24 28 30 30 29 29
13 14 21 26 32 34 33 31 28 24 26 26 20 19 11 14 13 17 17 18 20 19 17 20 23 26 26 26 26 27 29 29
17 20 26 30 32 32 32 30 26 25 24 17 15 14 14 14 16 19 20 21 21 21 23 24 25 26 25 26 28 27 26 25
20 22 28 32 33 31 26 24 24 19 13 10 13 15 16 16 18 22 24 23 22 23 24 24 24 25 26 26 26 25 23 23
Wind_Direction
238 252 261 266 259 252 239 243 252 271 296 292 294 306 325 327 330 332 327 326 323 316 311 308 302 295 292 290 287 284 279 277
257 265 265 262 255 241 245 246 259 270 279 286 287 289 297 305 309 312 313 311 307 304 303 300 298 293 293 288 281 277 274 273
80 74 61 70 242 242 244 238 248 263 276 285 288 292 294 299 303 301 303 302 300 297 295 291 288 287 284 281 279 275 271 269
70 80 87 129 184 216 228 242 264 280 288 291 291 293 296 294 290 294 298 304 301 297 295 292 288 284 281 279 275 271 270 271
20 18 3 326 296 279 276 289 297 299 307 317 321 320 316 310 307 307 306 307 306 303 300 295 290 288 285 283 277 271 270 260
335 345 351 358 17 28 34 18 347 336 330 326 325 324 321 318 317 313 314 313 311 308 303 300 298 294 288 283 278 274 270 267
19 27 39 53 45 26 8 349 338 330 326 327 322 317 309 311 311 314 313 311 311 307 302 301 299 298 294 286 278 271 267 258
63 63 49 28 5 349 337 332 333 324 318 316 309 308 310 313 315 316 317 316 313 308 306 308 308 305 302 293 274 255 238 232
45 18 1 352 345 339 336 332 323 310 307 314 318 316 318 318 321 323 319 315 307 303 303 308 307 299 289 274 247 246 250 271
359 354 351 344 332 332 329 324 325 324 324 322 324 323 326 327 327 325 319 309 301 304 302 304 310 315 297 294 287 274 300 312
348 340 337 331 318 324 332 329 326 330 332 327 326 327 332 333 330 325 318 308 304 304 307 299 297 309 311 325 348 336 339 337
338 344 349 347 328 329 335 335 331 327 328 324 321 324 331 333 329 323 315 307 288 245 268 264 278 301 332 319 328 325 319 312
348 345 347 342 334 334 337 334 328 321 321 321 321 324 328 329 330 327 312 228 249 258 272 304 325 336 328 318 322 309 302 300
332 336 340 333 326 324 323 325 325 323 322 321 321 325 327 327 331 324 297 274 265 280 314 347 333 317 310 307 304 303 302 302
320 328 333 336 332 328 329 329 327 324 321 321 322 321 327 334 331 328 316 307 318 341 337 326 319 307 305 305 305 305 306 305
321 331 334 333 333 331 328 325 326 327 327 329 320 319 325 324 334 341 340 330 325 321 314 309 308 307 305 306 307 306 305 303
322 330 334 334 331 331 335 339 339 336 334 331 320 319 305 308 352 347 331 321 318 317 310 307 304 305 305 305 304 304 304 302
327 333 330 333 337 336 334 337 339 340 338 348 351 358 352 344 334 329 325 320 316 313 310 309 309 308 311 312 312 309 305 305
322 326 333 335 334 331 329 332 334 336 335 349 347 341 333 332 331 328 322 318 317 315 315 314 313 313 315 314 313 309 305 307
Height
1542 1545 1546 1546 1547 1549 1551 1552 1554 1553 1552 1552 1552 1552 1550 1549 1548 1547 1545 1544 1541 1539 1537 1535 1533 1532 1530 1528 1527 1525 1525 1524
1541 1542 1542 1543 1544 1546 1549 1551 1552 1551 1550 1550 1549 1548 1547 1546 1545 1543 1542 1539 1536 1534 1531 1528 1526 1524 1523 1522 1521 1519 1518 1517
1541 1542 1542 1543 1545 1547 1548 1549 1548 1548 1547 1546 1546 1544 1543 1542 1540 1539 1536 1533 1530 1527 1523 1520 1517 1514 1513 1512 1511 1510 1510 1510
1543 1544 1544 1544 1544 1545 1546 1546 1546 1545 1544 1543 1542 1540 1538 1537 1536 1533 1531 1528 1525 1521 1517 1513 1510 1507 1503 1502 1500 1500 1499 1500
1546 1545 1545 1545 1545 1545 1545 1544 1544 1543 1541 1540 1539 1537 1535 1532 1529 1525 1522 1519 1515 1511 1507 1504 1501 1498 1494 1492 1490 1488 1489 1489
1546 1546 1546 1545 1545 1544 1544 1543 1543 1542 1540 1539 1536 1534 1530 1526 1523 1518 1514 1510 1506 1502 1498 1495 1492 1489 1486 1483 1481 1478 1477 1477
1546 1546 1546 1546 1546 1545 1544 1543 1542 1540 1538 1535 1532 1528 1525 1520 1516 1511 1507 1503 1499 1495 1490 1486 1481 1477 1474 1472 1470 1468 1468 1468
1548 1549 1548 1548 1546 1544 1543 1541 1537 1534 1533 1531 1528 1525 1521 1517 1513 1507 1501 1496 1491 1486 1483 1480 1475 1471 1467 1465 1464 1464 1464 1464
1551 1549 1548 1546 1544 1542 1539 1535 1532 1531 1529 1526 1524 1522 1517 1512 1507 1502 1495 1489 1483 1478 1475 1471 1469 1467 1465 1463 1463 1463 1462 1462
1549 1548 1546 1544 1541 1538 1535 1533 1531 1528 1525 1522 1519 1516 1512 1506 1500 1495 1488 1483 1478 1474 1471 1468 1467 1466 1466 1463 1461 1460 1458 1458
1548 1546 1544 1542 1540 1537 1535 1531 1528 1524 1520 1517 1513 1508 1504 1498 1491 1484 1479 1475 1473 1471 1471 1469 1466 1463 1462 1460 1458 1457 1456 1455
1547 1544 1542 1539 1536 1533 1529 1525 1521 1518 1514 1510 1506 1501 1495 1488 1482 1477 1473 1471 1470 1469 1468 1465 1461 1459 1458 1458 1456 1456 1455 1454
1541 1538 1535 1533 1530 1528 1524 1520 1515 1512 1508 1504 1500 1495 1490 1484 1477 1472 1470 1469 1467 1466 1463 1462 1460 1457 1456 1455 1453 1452 1451 1450
1536 1534 1532 1529 1525 1521 1517 1514 1509 1505 1501 1497 1493 1488 1483 1478 1475 1471 1468 1466 1465 1463 1461 1459 1458 1456 1454 1452 1450 1448 1446 1444
1534 1531 1527 1526 1522 1517 1513 1509 1505 1500 1496 1491 1486 1483 1478 1474 1471 1469 1467 1464 1463 1461 1459 1457 1455 1453 1450 1448 1445 1442 1439 1436
1531 1528 1523 1520 1517 1513 1509 1504 1499 1495 1490 1486 1481 1478 1475 1472 1469 1468 1466 1464 1460 1457 1455 1453 1450 1448 1445 1442 1439 1435 1432 1429
1527 1523 1518 1516 1512 1507 1502 1498 1493 1490 1486 1482 1478 1475 1471 1469 1467 1465 1463 1461 1457 1454 1451 1449 1446 1443 1439 1437 1433 1429 1425 1421
1522 1518 1516 1511 1506 1500 1496 1492 1489 1485 1483 1479 1476 1473 1471 1468 1465 1463 1460 1457 1453 1450 1447 1444 1440 1437 1433 1430 1426 1422 1417 1413
1517 1514 1511 1507 1503 1499 1494 1490 1486 1483 1480 1477 1475 1472 1470 1467 1464 1460 1456 1452 1449 1445 1442 1438 1435 1431 1427 1423 1419 1415 1410 1406